DW7076 Floda SE current weather conditions

sailwx.info

Wind from 163 at 2 knots gusting 7

Air temperature 6.1° C
Dewpoint 5.7° C

Last reported at 2016-Feb-06 14:46 UTC.
Time now 2016-Feb-06 15:45 UTC

Location: N 57°49' E 012°21'.
View on Google Maps.

See reports from other nearby stations

  
Tides and Currents Weather Stations Pressure Air Temp Water Temp Dewpoint Dewpoint Depression Visibility Wind Speed Wind Dir Waves Ship Positions
date/time (UTC)wind fromknots sea level pressurealtimeterstation pressurevisibilityair tempwater tempwave heightnotes
2016-Feb-06 14:46 163 2 gusting 7 6.1
2016-Feb-06 14:36 149 1 gusting 8 6.1
2016-Feb-06 14:26 152 1 gusting 8 6.1
2016-Feb-06 14:16 139 2 gusting 8 6.1
2016-Feb-06 14:06 217 1 gusting 6 6.1
2016-Feb-06 13:56 148 3 gusting 7 6.1
2016-Feb-06 13:46 166 2 gusting 13 6.1
2016-Feb-06 13:36 161 2 gusting 10 6.1
2016-Feb-06 13:26 238 1 gusting 10 6.1
2016-Feb-06 13:16 150 3 gusting 8 6.1
2016-Feb-06 13:06 178 4 gusting 7 6.1
2016-Feb-06 12:56 145 3 gusting 8 6.1
2016-Feb-06 12:46 140 4 gusting 11 6.1
2016-Feb-06 12:36 228 2 gusting 10 6.1
2016-Feb-06 12:26 100 2 gusting 10 6.1
2016-Feb-06 12:16 156 3 gusting 6 6.1
2016-Feb-06 12:06 202 5 gusting 10 5.6
2016-Feb-06 11:56 160 1 gusting 10 5.6
2016-Feb-06 11:46 156 2 gusting 10 5.6
2016-Feb-06 11:36 136 2 gusting 13 5.6
2016-Feb-06 11:26 217 4 gusting 12 5.6
2016-Feb-06 11:16 182 4 gusting 12 5.6
2016-Feb-06 11:06 185 5 gusting 15 5.6
2016-Feb-06 10:56 152 5 gusting 12 5.6
2016-Feb-06 10:46 145 1 gusting 8 5.6
2016-Feb-06 10:36 163 5 gusting 14 5.6
2016-Feb-06 10:26 163 6 gusting 14 5.6
2016-Feb-06 10:16 166 2 gusting 17 5.6
2016-Feb-06 10:06 173 4 gusting 10 5.6
2016-Feb-06 09:56 201 3 gusting 10 5.6
2016-Feb-06 09:46 173 6 gusting 13 5.0
2016-Feb-06 09:36 154 5 gusting 13 5.0
2016-Feb-06 09:26 165 6 gusting 12 5.0
2016-Feb-06 09:16 158 2 gusting 13 5.0
2016-Feb-06 09:06 155 4 gusting 11 5.0
2016-Feb-06 08:56 188 6 gusting 17 5.0
2016-Feb-06 08:46 148 5 gusting 12 5.0
2016-Feb-06 08:36 183 2 gusting 10 5.0
2016-Feb-06 08:26 194 4 gusting 13 5.0
2016-Feb-06 08:16 190 4 gusting 13 5.0
2016-Feb-06 08:06 176 4 gusting 12 5.0
2016-Feb-06 07:56 169 2 gusting 10 5.0
2016-Feb-06 07:46 198 6 gusting 13 5.0
2016-Feb-06 07:36 152 4 gusting 11 5.0
2016-Feb-06 07:26 212 4 gusting 11 5.0
2016-Feb-06 07:16 165 4 gusting 8 5.0
2016-Feb-06 07:06 044 3 gusting 10 5.0
2016-Feb-06 06:56 190 4 gusting 14 5.0
2016-Feb-06 06:46 162 5 gusting 11 5.0
2016-Feb-06 06:36 190 3 gusting 12 5.0
2016-Feb-06 06:26 156 4 gusting 13 5.0
2016-Feb-06 06:16 202 3 gusting 10 5.0
2016-Feb-06 06:06 204 0 gusting 6 5.0
2016-Feb-06 05:56 170 0 gusting 10 5.0
2016-Feb-06 05:46 210 3 gusting 7 5.0
2016-Feb-06 05:36 192 2 gusting 10 5.0
2016-Feb-06 05:26 140 3 gusting 7 5.0
2016-Feb-06 05:16 190 4 gusting 12 5.0
2016-Feb-06 05:06 223 3 gusting 12 5.0
2016-Feb-06 04:56 176 4 gusting 8 4.4
2016-Feb-06 04:46 189 1 gusting 6 4.4
2016-Feb-06 04:36 142 1 gusting 6 4.4
2016-Feb-06 04:26 186 1 gusting 6 4.4
2016-Feb-06 04:16 187 2 gusting 8 4.4
2016-Feb-06 04:06 134 2 gusting 8 4.4
2016-Feb-06 03:56 163 3 gusting 10 4.4
2016-Feb-06 03:46 183 0 gusting 6 3.9
2016-Feb-06 03:36 144 1 gusting 5 3.9
2016-Feb-06 03:26 147 1 gusting 4 3.9
2016-Feb-06 03:16 167 1 gusting 8 3.9
2016-Feb-06 03:06 166 1 gusting 7 3.9
2016-Feb-06 02:56 168 1 gusting 5 3.3
2016-Feb-06 02:46 168 1 gusting 6 3.3
2016-Feb-06 02:36 144 1 gusting 5 3.3
2016-Feb-06 02:26 161 1 gusting 4 3.3
2016-Feb-06 02:16 138 1 gusting 4 3.3
2016-Feb-06 02:06 147 1 gusting 5 3.3
2016-Feb-06 01:56 179 2 gusting 4 3.3
2016-Feb-06 01:46 155 1 gusting 6 2.8
2016-Feb-06 01:36 154 0 gusting 4 2.8
2016-Feb-06 01:26 166 2 gusting 6 2.8
2016-Feb-06 01:16 188 0 gusting 6 2.8
2016-Feb-06 01:06 172 0 gusting 5 2.8
2016-Feb-06 00:56 159 1 gusting 5 2.8
2016-Feb-06 00:46 162 1 gusting 6 2.8
2016-Feb-06 00:36 163 1 gusting 4 2.8
2016-Feb-06 00:26 199 2 gusting 6 2.8
2016-Feb-06 00:16 159 2.8
2016-Feb-06 00:06 166 1 gusting 5 2.8
2016-Feb-05 23:56 146 2 gusting 7 2.8
2016-Feb-05 23:46 155 0 gusting 7 2.8
2016-Feb-05 23:36 128 2 gusting 6 2.8
2016-Feb-05 23:26 131 0 gusting 8 2.8
2016-Feb-05 23:16 198 2 gusting 7 2.8
2016-Feb-05 23:06 166 2 gusting 6 2.8
2016-Feb-05 22:56 181 4 gusting 7 2.8
2016-Feb-05 22:46 173 0 gusting 2 2.2
2016-Feb-05 22:36 191 4 gusting 7 2.2
2016-Feb-05 22:26 183 0 gusting 7 2.2
2016-Feb-05 22:16 149 1 gusting 6 2.2
2016-Feb-05 22:06 178 2 gusting 10 2.2
2016-Feb-05 21:56 179 2 gusting 6 2.2
2016-Feb-05 21:46 154 2 gusting 8 2.2
2016-Feb-05 21:36 162 2 gusting 6 2.2
2016-Feb-05 21:26 168 2 gusting 7 2.2
2016-Feb-05 21:16 169 2 gusting 10 2.2
2016-Feb-05 21:06 166 4 gusting 7 2.2
2016-Feb-05 20:56 148 2 gusting 6 2.2
2016-Feb-05 20:46 185 1 gusting 6 2.2
2016-Feb-05 20:36 178 3 gusting 7 1.7
2016-Feb-05 20:26 152 2 gusting 10 1.7
2016-Feb-05 20:16 146 1 gusting 6 1.7
2016-Feb-05 20:06 164 2 gusting 7 1.7
2016-Feb-05 19:56 168 1 gusting 8 1.7
2016-Feb-05 19:46 183 2 gusting 7 1.7
2016-Feb-05 19:36 175 2 gusting 7 1.7
2016-Feb-05 19:26 157 2 gusting 6 1.7
2016-Feb-05 19:16 163 2 gusting 7 1.7
2016-Feb-05 19:06 165 1 gusting 6 1.7
2016-Feb-05 18:56 167 1 gusting 6 1.7
2016-Feb-05 18:46 192 4 gusting 8 1.7
2016-Feb-05 18:36 153 0 gusting 6 1.7
2016-Feb-05 18:26 176 2 gusting 6 1.7
2016-Feb-05 18:16 186 1 gusting 6 1.7
2016-Feb-05 18:06 137 1 gusting 5 1.7
2016-Feb-05 17:56 141 1 gusting 7 1.7
2016-Feb-05 17:46 188 1 gusting 6 1.7
2016-Feb-05 17:36 170 1 gusting 6 1.7
2016-Feb-05 17:26 193 2 gusting 7 1.7
2016-Feb-05 17:16 182 2 gusting 4 1.7
2016-Feb-05 17:06 176 3 gusting 7 1.7
2016-Feb-05 16:56 184 1 gusting 8 1.7
2016-Feb-05 16:46 192 1 gusting 2 1.7
2016-Feb-05 16:36 148 1 gusting 6 1.7
2016-Feb-05 16:26 131 1.7
2016-Feb-05 16:16 178 2 gusting 5 1.7
2016-Feb-05 16:06 204 0 gusting 5 1.7
2016-Feb-05 15:56 151 1 gusting 4 1.7
2016-Feb-05 15:46 202 1 gusting 5 1.7
2016-Feb-05 15:36 118 0 gusting 4 1.7
2016-Feb-05 15:26 217 1.7
2016-Feb-05 15:16 161 2.2
2016-Feb-05 15:06 176 0 gusting 2 2.2
2016-Feb-05 14:56 152 0 gusting 4 2.2
2016-Feb-05 14:46 139 0 gusting 2 2.2
2016-Feb-05 14:36 180 1 gusting 5 2.2
2016-Feb-05 14:26 156 0 gusting 5 2.2
2016-Feb-05 14:16 164 0 gusting 4 2.8
2016-Feb-05 14:06 157 1 gusting 4 2.8
2016-Feb-05 13:56 242 1 gusting 5 2.8
2016-Feb-05 13:46 187 3 gusting 6 2.8
2016-Feb-05 13:36 186 2.8
2016-Feb-05 13:26 215 0 gusting 4 2.8
2016-Feb-05 13:16 148 1 gusting 6 2.8
2016-Feb-05 13:06 159 0 gusting 4 2.8
2016-Feb-05 12:56 190 0 gusting 4 2.8
2016-Feb-05 12:46 149 0 gusting 4 2.8
2016-Feb-05 12:36 151 1 gusting 4 2.8
2016-Feb-05 12:26 157 0 gusting 2 2.8
2016-Feb-05 12:16 182 2.8
2016-Feb-05 12:06 159 2 gusting 5 2.8
2016-Feb-05 11:56 230 0 gusting 5 2.8
2016-Feb-05 11:46 315 0 gusting 2 2.2
2016-Feb-05 11:26 167 1.7
2016-Feb-05 11:16 167 1.1
2016-Feb-05 11:06 167 0.6
2016-Feb-05 10:56 167 0.6
2016-Feb-05 10:46 167 0.6
2016-Feb-05 10:36 167 -0.0
2016-Feb-05 10:26 167 -0.6
2016-Feb-05 10:16 167 -0.6
2016-Feb-05 10:06 167 -1.1
2016-Feb-05 09:56 167 -1.1
2016-Feb-05 09:46 167 -1.7
2016-Feb-05 09:36 167 -1.7
2016-Feb-05 09:26 167 0 gusting 2 -2.2
2016-Feb-05 09:16 232 -2.8
2016-Feb-05 09:06 236 0 gusting 1 -2.8
2016-Feb-05 08:56 237 0 gusting 2 -3.3
2016-Feb-05 08:46 237 -3.9
2016-Feb-05 08:36 248 -3.9
2016-Feb-05 08:26 248 -4.4
2016-Feb-05 08:16 248 -4.4
2016-Feb-05 08:06 248 -3.9
2016-Feb-05 07:56 248 -3.9
2016-Feb-05 07:46 248 -3.9
2016-Feb-05 07:36 248 -3.9
2016-Feb-05 07:26 248 -3.9
2016-Feb-05 07:16 248 -3.9
2016-Feb-05 07:06 248 0 gusting 1 -3.9
2016-Feb-05 06:56 248 0 gusting 1 -3.9
2016-Feb-05 06:46 248 0 gusting 1 -3.9
2016-Feb-05 06:36 248 0 gusting 1 -3.9
2016-Feb-05 06:26 248 0 gusting 1 -3.9
2016-Feb-05 06:16 248 -3.9
2016-Feb-05 06:06 248 -3.9
2016-Feb-05 05:56 248 -3.9
2016-Feb-05 05:46 248 0 gusting 1 -3.9
2016-Feb-05 05:36 248 -3.3
2016-Feb-05 05:26 248 -3.3
2016-Feb-05 05:16 248 -3.3
2016-Feb-05 05:06 248 0 gusting 1 -3.3
2016-Feb-05 04:56 248 -3.3
2016-Feb-05 04:46 248 -3.3
2016-Feb-05 04:36 249 0 gusting 2 -3.3
2016-Feb-05 04:26 202 -3.3
2016-Feb-05 04:16 202 -3.3
2016-Feb-05 04:06 202 -3.9
2016-Feb-05 03:56 202 0 gusting 2 -3.9
2016-Feb-05 03:46 202 0 gusting 1 -3.9
2016-Feb-05 03:36 202 0 gusting 1 -4.4
2016-Feb-05 03:26 202 -4.4
2016-Feb-05 03:16 202 0 gusting 1 -4.4
2016-Feb-05 03:06 202 -3.9
2016-Feb-05 02:56 202 -3.9
2016-Feb-05 02:46 202 0 gusting 2 -3.9
2016-Feb-05 02:36 202 0 gusting 2 -3.9
2016-Feb-05 02:26 202 0 gusting 1 -3.9
2016-Feb-05 02:16 202 0 gusting 1 -3.9
2016-Feb-05 02:06 202 -4.4
2016-Feb-05 01:56 202 -4.4
2016-Feb-05 01:46 202 -4.4
2016-Feb-05 01:36 202 0 gusting 1 -4.4
2016-Feb-05 01:26 209 0 gusting 2 -4.4
2016-Feb-05 01:16 275 -4.4
2016-Feb-05 01:06 275 -4.4
2016-Feb-05 00:56 275 -4.4
2016-Feb-05 00:46 275 0 gusting 2 -4.4
2016-Feb-05 00:36 275 0 gusting 1 -4.4
2016-Feb-05 00:26 275 -4.4
2016-Feb-05 00:16 275 -4.4
2016-Feb-05 00:06 275 -4.4
2016-Feb-04 23:56 276 0 gusting 2 -4.4
2016-Feb-04 23:46 217 -4.4
2016-Feb-04 23:36 227 0 gusting 2 -4.4
2016-Feb-04 23:26 291 0 gusting 1 -4.4
2016-Feb-04 23:16 291 -4.4
2016-Feb-04 23:06 291 0 gusting 2 -4.4
2016-Feb-04 22:56 323 0 gusting 1 -4.4
2016-Feb-04 22:46 323 -5.0
2016-Feb-04 22:36 323 -5.0
2016-Feb-04 22:26 323 -4.4
2016-Feb-04 22:16 323 -4.4
2016-Feb-04 22:06 323 -4.4
2016-Feb-04 21:56 323 -4.4
2016-Feb-04 21:46 323 -4.4
2016-Feb-04 21:36 323 -4.4
2016-Feb-04 21:26 323 -3.9
2016-Feb-04 21:16 323 -3.9
2016-Feb-04 21:06 323 -3.9
2016-Feb-04 20:56 323 -3.9
2016-Feb-04 20:46 323 -3.9
2016-Feb-04 20:36 323 -3.9
2016-Feb-04 20:26 323 -3.9
2016-Feb-04 20:16 323 -3.9
2016-Feb-04 20:06 323 -3.9
2016-Feb-04 19:56 323 -3.3
2016-Feb-04 19:46 323 -3.3
2016-Feb-04 19:36 323 -3.3
2016-Feb-04 19:26 323 -3.3
2016-Feb-04 19:16 323 -2.8
2016-Feb-04 19:06 323 -2.8
2016-Feb-04 18:56 323 -2.8
2016-Feb-04 18:46 323 0 gusting 2 -2.8
2016-Feb-04 18:36 323 -2.8
2016-Feb-04 18:26 323 0 gusting 2 -2.8
2016-Feb-04 18:16 324 0 gusting 2 -2.8
2016-Feb-04 18:06 324 0 gusting 1 -2.2
2016-Feb-04 17:56 324 0 gusting 1 -2.2
2016-Feb-04 17:46 324 0 gusting 2 -2.2
2016-Feb-04 17:36 324 0 gusting 2 -2.2
2016-Feb-04 17:26 325 0 gusting 1 -1.7
2016-Feb-04 17:16 325 0 gusting 2 -1.7
2016-Feb-04 17:06 325 0 gusting 1 -1.7
2016-Feb-04 16:56 325 0 gusting 1 -1.1
2016-Feb-04 16:46 325 -1.1
2016-Feb-04 16:36 325 -1.1
2016-Feb-04 16:26 320 0 gusting 2 -0.6
2016-Feb-04 16:16 320 0 gusting 2 -0.6
2016-Feb-04 16:06 340 0 gusting 2 -0.0
2016-Feb-04 15:56 340 0 gusting 1 -0.0
2016-Feb-04 15:46 340 1 gusting 2 0.6
2016-Feb-04 15:36 346 1 gusting 2 1.1
2016-Feb-04 15:26 333 1.1
2016-Feb-04 15:16 333 0 gusting 5 1.7
2016-Feb-04 15:06 320 1 gusting 6 1.7